Wind_Speed
4 3 3 3 3 3 3 3 3 3 3 3 3 3 3 3 3 3 3 3 3 3 3 2 2 2 2 3 3 2 2 2 2 1 1 0 1 2 3 3 3 3 3
3 3 3 3 2 2 2 2 3 3 3 3 3 2 2 2 2 2 2 2 2 2 2 2 1 1 2 2 2 2 2 2 1 1 1 1 1 2 2 3 4 4 5
2 2 2 2 2 1 2 2 2 2 2 2 2 2 2 1 1 1 1 1 2 1 1 2 2 2 2 2 2 2 2 2 2 2 2 2 2 3 3 4 5 5 6
2 1 1 1 1 1 1 1 1 1 1 0 0 0 0 1 0 0 1 2 2 3 3 3 3 3 3 3 3 3 3 3 3 3 3 3 4 4 5 5 6 6 7
1 0 1 1 1 1 1 1 2 2 2 2 2 2 1 1 2 2 2 3 4 4 4 5 5 5 5 5 5 5 5 5 5 5 5 5 5 6 6 6 7 7 8
0 1 2 2 2 2 2 3 3 3 3 3 3 3 3 3 3 4 5 5 6 6 6 7 7 7 7 7 7 7 7 7 7 7 7 7 8 8 9 9 9 9 10
1 2 2 2 3 3 3 4 4 4 4 4 4 5 5 5 6 6 6 7 7 8 8 8 9 9 9 9 9 9 9 10 10 10 10 10 10 10 11 11 11 12 12
2 3 4 3 4 5 5 5 5 5 6 5 6 6 7 7 7 7 8 8 9 10 10 11 12 12 11 11 11 11 11 12 12 12 12 12 13 13 13 13 14 14 14
4 4 5 5 5 6 6 7 7 7 7 7 7 7 8 9 9 9 10 10 11 11 12 12 13 13 13 13 13 13 14 14 14 14 14 14 15 15 15 15 16 17 17
6 6 6 6 6 7 7 7 7 8 9 9 9 9 9 10 10 11 11 12 13 13 13 13 14 14 15 15 15 15 16 16 16 15 15 16 16 17 17 17 18 19 19
6 7 7 7 7 7 8 8 9 9 10 10 11 11 11 11 11 12 13 13 14 15 15 15 15 15 16 17 18 18 18 17 17 17 18 18 19 19 19 20 20 20 20
6 7 7 7 7 8 9 9 10 11 11 11 12 12 13 13 13 14 14 15 15 16 16 17 17 18 18 19 18 19 19 19 19 19 20 20 20 20 21 21 21 21 22
6 7 6 6 7 8 9 9 10 11 12 12 13 13 14 15 15 15 16 16 17 18 18 18 18 18 19 19 19 19 19 20 20 20 21 22 22 22 23 23 23 24 25
8 8 8 8 8 9 10 10 10 11 12 12 13 14 15 15 16 16 16 17 18 18 19 19 19 19 20 20 21 21 20 20 21 22 23 23 23 23 24 25 26 26 26
10 10 10 9 10 10 10 11 11 11 12 12 13 14 16 16 16 16 17 17 17 18 19 20 21 21 21 21 21 21 22 22 22 23 23 24 25 25 26 27 27 28 29
11 11 10 10 10 10 10 11 11 11 11 12 13 14 14 14 15 17 17 17 17 17 18 19 20 21 21 21 22 22 23 23 24 24 25 26 26 27 28 28 28 30 31
11 11 10 9 9 9 10 11 12 13 13 13 14 14 13 14 15 16 17 18 18 18 18 19 21 21 22 23 24 23 22 23 24 25 26 27 27 29 30 30 31 32 32
11 11 10 10 10 10 12 12 13 14 14 14 14 14 15 15 16 16 16 17 18 18 19 20 21 22 22 23 24 24 24 24 24 25 27 28 29 30 31 32 33 34 35
11 11 10 11 11 12 12 12 12 13 14 14 15 15 16 17 17 17 18 18 19 20 20 20 21 21 22 22 23 23 24 25 26 27 28 30 31 32 32 33 34 35 36
11 11 11 11 12 12 12 12 12 13 14 15 15 16 17 18 19 19 20 20 20 20 21 21 21 22 22 23 24 24 25 27 28 29 30 31 31 32 33 33 33 34 36
12 12 11 11 12 13 12 13 14 15 15 16 16 17 18 19 19 20 20 21 22 22 22 23 23 23 24 25 26 27 27 28 29 30 31 31 31 32 33 34 35 35 36
13 13 13 13 14 13 13 14 15 15 15 16 17 18 19 19 20 20 21 21 22 22 22 23 23 24 25 26 27 28 28 29 30 30 32 32 32 33 34 35 35 36 38
13 14 14 15 15 15 15 15 15 15 16 16 17 18 20 20 21 21 21 22 23 23 24 25 25 26 27 27 28 28 29 29 30 30 31 33 33 34 35 36 36 37 38
14 15 14 15 15 15 15 15 16 16 17 18 19 19 20 21 22 22 23 23 24 25 25 25 26 27 27 28 29 29 29 29 30 31 32 33 33 34 35 36 36 37 37
14 14 14 15 15 15 15 16 17 18 19 19 19 20 21 22 22 23 24 24 25 26 26 27 27 27 28 29 29 29 29 30 30 31 32 33 33 34 35 35 36 36 36
13 14 14 14 14 15 16 17 17 18 19 19 20 21 21 22 23 24 25 25 26 26 26 26 27 28 28 29 29 29 30 31 31 32 33 33 34 35 35 36 37 37 36
Wind_Direction
99 97 104 105 103 100 90 84 92 103 110 101 99 89 81 78 76 81 77 72 68 65 66 63 58 59 58 49 43 40 40 43 45 43 40 287 234 233 236 236 239 245 253
102 104 109 110 111 108 97 91 98 99 91 89 91 89 89 76 72 78 72 65 53 46 43 38 32 21 16 13 8 7 5 4 357 354 345 314 258 247 248 251 255 260 263
108 118 119 120 122 123 116 106 109 102 94 86 86 88 91 75 65 54 26 20 11 357 347 344 329 324 322 319 326 321 319 324 325 317 301 282 270 265 267 267 266 266 267
106 107 145 160 160 170 123 123 141 161 164 154 139 183 89 76 68 310 324 331 331 327 318 316 308 300 302 305 306 299 298 297 297 296 293 286 278 273 273 273 274 272 269
102 118 179 215 230 231 228 218 212 228 239 247 255 267 282 291 300 290 298 299 301 303 300 296 293 286 286 290 292 291 286 284 285 281 280 282 279 274 273 274 275 275 274
304 255 247 246 247 239 243 244 239 236 246 250 258 267 276 278 288 285 289 291 293 292 290 288 288 284 277 278 281 282 282 281 282 279 277 276 276 275 274 274 276 276 275
297 245 255 253 251 251 254 253 250 246 250 253 261 271 277 277 280 280 280 281 283 284 285 285 285 283 276 272 274 277 277 277 277 276 277 275 274 274 274 273 274 276 276
274 253 257 261 260 257 254 253 254 255 259 262 266 270 275 275 276 278 279 277 277 280 283 283 285 284 279 276 274 275 275 275 273 273 274 275 275 274 274 275 275 276 277
281 276 265 268 263 260 255 254 255 258 260 262 267 271 275 278 279 276 277 278 280 282 285 284 284 281 280 275 274 275 276 276 274 273 273 274 275 274 274 275 275 275 274
282 282 274 270 269 268 261 257 262 263 265 265 269 272 274 277 277 276 278 279 281 281 282 284 285 284 282 278 276 276 277 278 279 278 278 277 275 276 277 277 275 274 274
290 286 279 270 269 267 266 263 264 267 269 268 272 274 274 277 278 277 279 281 281 281 283 284 287 285 285 283 280 279 277 276 278 277 278 279 277 277 279 279 277 276 276
296 289 284 274 268 264 267 269 267 267 267 270 275 276 275 277 280 278 279 280 282 283 284 284 284 282 283 285 285 281 277 279 279 278 278 279 279 279 280 279 277 276 277
297 293 293 284 274 266 269 272 273 274 273 274 277 277 277 277 278 280 281 281 282 284 284 284 285 284 285 286 282 281 279 282 283 282 281 281 279 278 279 279 280 279 278
302 295 291 281 278 274 272 272 273 278 280 281 282 282 282 280 278 280 282 282 282 283 284 284 286 286 284 283 281 281 280 281 280 280 281 282 281 280 281 281 281 280 279
310 303 289 282 281 284 277 276 277 278 279 281 283 284 284 283 281 281 283 283 284 284 283 284 285 287 286 283 280 280 280 281 281 281 280 279 278 280 282 282 281 279 278
308 301 292 282 283 284 282 279 278 285 284 284 286 288 286 286 286 284 285 285 287 288 287 285 286 288 289 285 282 281 281 281 280 280 280 280 279 280 281 281 281 281 280
304 302 294 287 286 289 289 288 281 280 282 285 285 285 285 288 291 293 291 287 288 289 289 288 289 288 289 286 284 283 281 281 281 279 279 280 281 281 281 281 282 282 281
300 295 292 287 289 292 290 289 283 279 282 281 283 284 287 291 293 295 294 294 291 289 290 289 289 288 287 286 286 282 282 282 282 281 281 282 282 281 280 281 282 281 281
301 295 292 288 290 293 291 289 290 283 282 285 284 286 289 292 294 296 296 296 294 294 292 291 290 291 290 289 288 284 283 282 283 284 284 285 284 283 282 282 282 283 283
296 296 295 294 293 293 293 290 294 290 286 289 288 289 290 291 294 295 297 296 296 296 295 294 293 290 290 290 289 288 286 284 285 286 287 287 286 286 287 285 285 285 285
289 291 294 294 294 297 294 290 293 293 288 288 290 291 291 292 293 295 297 298 297 296 295 293 293 292 293 292 291 289 288 287 287 288 289 289 289 287 287 287 288 287 287
290 289 288 291 292 293 293 294 296 297 293 290 291 293 292 294 295 295 296 296 297 297 296 296 295 295 295 297 296 294 292 291 291 291 290 290 291 290 289 289 289 288 288
290 288 286 290 291 290 290 292 294 294 294 295 296 297 297 294 298 298 296 297 296 297 297 297 297 298 298 297 297 296 295 295 294 293 292 291 292 293 293 292 291 291 290
292 288 285 289 292 292 291 293 295 295 297 297 297 298 299 299 299 301 300 299 299 299 299 298 299 299 299 298 298 297 296 295 295 295 294 294 293 294 294 294 293 292 292
294 294 290 291 293 293 293 296 297 297 297 297 297 298 299 299 300 301 301 300 300 299 299 298 298 298 299 300 300 299 298 297 297 297 296 295 295 295 295 295 294 293 293
297 299 297 294 294 294 296 299 300 300 300 299 299 299 299 301 301 301 300 300 301 301 300 301 300 300 300 300 300 299 299 298 298 298 298 297 297 297 296 296 296 294 294
Height
5913 5913 5913 5913 5914 5913 5913 5913 5913 5913 5913 5913 5912 5912 5912 5912 5911 5911 5911 5910 5910 5909 5909 5908 5907 5907 5906 5906 5905 5905 5904 5903 5903 5902 5902 5901 5901 5901 5900 5900 5900 5900 5900
5914 5914 5914 5914 5914 5914 5914 5914 5913 5913 5913 5913 5913 5913 5912 5912 5912 5911 5911 5911 5910 5910 5909 5908 5908 5907 5907 5906 5906 5905 5904 5904 5903 5902 5902 5901 5901 5900 5900 5900 5900 5899 5899
5914 5914 5914 5914 5914 5914 5914 5914 5914 5914 5914 5913 5913 5913 5913 5912 5912 5912 5911 5911 5910 5910 5909 5909 5908 5907 5907 5906 5906 5905 5904 5903 5903 5902 5901 5901 5900 5900 5900 5899 5899 5899 5898
5914 5914 5914 5914 5914 5914 5914 5914 5914 5914 5914 5914 5913 5913 5913 5912 5912 5912 5911 5911 5910 5910 5909 5908 5908 5907 5906 5906 5905 5904 5904 5903 5902 5901 5901 5900 5900 5899 5899 5899 5898 5897 5897
5913 5914 5914 5914 5914 5914 5914 5914 5914 5914 5914 5914 5914 5913 5913 5912 5912 5911 5911 5911 5910 5909 5908 5908 5907 5906 5906 5905 5904 5903 5903 5902 5901 5901 5900 5899 5899 5898 5898 5897 5897 5896 5896
5913 5913 5913 5913 5913 5913 5913 5913 5913 5913 5913 5913 5913 5913 5912 5912 5911 5911 5910 5910 5909 5908 5907 5906 5906 5905 5904 5904 5903 5902 5901 5901 5900 5899 5898 5898 5897 5896 5896 5895 5895 5894 5894
5912 5912 5912 5912 5912 5913 5913 5912 5912 5912 5912 5912 5912 5912 5912 5911 5911 5910 5909 5908 5908 5907 5906 5905 5904 5903 5902 5901 5901 5900 5900 5899 5898 5897 5896 5896 5895 5894 5894 5893 5892 5892 5891
5911 5911 5911 5911 5911 5911 5911 5911 5911 5911 5911 5911 5911 5910 5910 5910 5909 5908 5908 5907 5906 5905 5904 5903 5902 5901 5900 5899 5898 5898 5897 5896 5895 5894 5894 5893 5892 5891 5891 5890 5889 5889 5888
5909 5909 5909 5909 5909 5909 5909 5909 5909 5909 5909 5909 5909 5909 5908 5908 5907 5907 5906 5905 5904 5903 5902 5901 5899 5898 5897 5896 5896 5895 5894 5893 5892 5891 5890 5890 5889 5888 5887 5887 5886 5885 5884
5908 5907 5907 5907 5907 5907 5907 5907 5907 5907 5907 5907 5907 5906 5906 5905 5905 5904 5903 5902 5901 5900 5899 5898 5897 5896 5894 5893 5892 5891 5890 5889 5888 5887 5887 5886 5885 5884 5883 5882 5882 5881 5880
5906 5905 5905 5905 5905 5905 5905 5905 5905 5905 5904 5904 5904 5904 5903 5903 5902 5901 5900 5899 5898 5897 5896 5895 5894 5892 5891 5890 5889 5887 5886 5885 5884 5883 5883 5881 5880 5880 5879 5878 5877 5876 5875
5904 5903 5903 5903 5903 5903 5903 5902 5902 5902 5902 5901 5901 5900 5900 5899 5899 5898 5897 5896 5895 5894 5892 5891 5890 5888 5887 5886 5884 5883 5882 5881 5880 5879 5878 5877 5875 5875 5874 5873 5871 5870 5869
5902 5901 5901 5900 5900 5900 5900 5900 5899 5899 5898 5898 5898 5897 5896 5896 5895 5894 5893 5892 5891 5889 5888 5887 5885 5884 5883 5881 5880 5879 5878 5877 5875 5874 5873 5871 5870 5869 5868 5867 5866 5864 5863
5900 5899 5898 5898 5897 5897 5897 5896 5896 5896 5895 5895 5894 5893 5892 5891 5891 5890 5889 5888 5886 5885 5883 5882 5881 5879 5878 5876 5875 5874 5873 5871 5870 5869 5867 5866 5864 5863 5862 5861 5859 5858 5857
5898 5896 5895 5895 5894 5894 5894 5893 5893 5893 5892 5891 5890 5889 5888 5887 5886 5885 5884 5883 5882 5881 5879 5877 5876 5874 5872 5871 5869 5868 5867 5866 5864 5863 5861 5860 5858 5857 5855 5854 5852 5851 5849
5895 5893 5892 5892 5892 5891 5891 5890 5890 5889 5889 5888 5887 5885 5884 5883 5882 5881 5880 5879 5877 5876 5875 5873 5871 5869 5867 5865 5864 5863 5861 5859 5858 5856 5854 5853 5851 5850 5848 5847 5845 5843 5841
5892 5890 5889 5889 5889 5888 5888 5887 5886 5886 5885 5884 5883 5881 5880 5879 5878 5876 5875 5874 5872 5871 5869 5867 5865 5863 5861 5859 5858 5856 5854 5853 5851 5849 5848 5846 5844 5842 5841 5839 5837 5835 5833
5888 5887 5887 5886 5886 5885 5884 5883 5882 5882 5881 5880 5879 5878 5877 5875 5874 5872 5870 5869 5867 5866 5864 5862 5860 5858 5856 5854 5851 5850 5848 5846 5844 5842 5840 5838 5836 5834 5832 5830 5828 5826 5824
5886 5885 5884 5883 5882 5881 5880 5879 5879 5878 5877 5876 5875 5874 5873 5871 5870 5868 5866 5864 5862 5860 5858 5857 5854 5852 5850 5848 5845 5843 5841 5839 5837 5835 5833 5830 5828 5825 5823 5821 5819 5816 5814
5883 5882 5881 5880 5879 5878 5877 5876 5875 5874 5874 5872 5871 5870 5868 5867 5865 5863 5861 5859 5857 5855 5853 5851 5848 5846 5844 5841 5839 5837 5834 5832 5830 5827 5824 5822 5819 5817 5814 5811 5809 5806 5803
5879 5878 5877 5876 5875 5874 5873 5872 5871 5870 5869 5868 5867 5865 5864 5862 5860 5858 5856 5854 5852 5850 5847 5845 5842 5840 5837 5835 5832 5830 5827 5825 5822 5819 5816 5814 5811 5808 5805 5802 5799 5796 5793
5876 5875 5874 5873 5872 5871 5870 5869 5867 5866 5865 5863 5862 5860 5859 5857 5854 5852 5850 5848 5846 5844 5841 5839 5836 5833 5831 5828 5825 5822 5820 5817 5814 5812 5808 5805 5802 5799 5796 5793 5789 5786 5783
5872 5871 5870 5869 5868 5867 5865 5864 5863 5862 5860 5859 5857 5855 5853 5851 5849 5846 5844 5842 5840 5837 5835 5832 5830 5827 5824 5821 5818 5815 5812 5809 5806 5803 5800 5796 5793 5790 5786 5782 5779 5776 5772
5868 5866 5865 5865 5863 5862 5861 5860 5858 5857 5855 5854 5852 5850 5848 5846 5843 5841 5838 5836 5834 5831 5828 5826 5823 5820 5817 5814 5811 5807 5804 5801 5798 5794 5791 5788 5784 5781 5777 5773 5769 5765 5761
5864 5862 5861 5860 5859 5857 5856 5855 5854 5852 5850 5848 5846 5844 5842 5840 5837 5835 5832 5830 5827 5824 5821 5818 5815 5812 5809 5806 5802 5799 5796 5793 5790 5786 5782 5779 5775 5771 5767 5763 5759 5755 5751
5860 5859 5857 5856 5854 5853 5852 5851 5849 5847 5845 5843 5840 5838 5836 5834 5831 5828 5825 5823 5820 5817 5814 5811 5808 5804 5801 5798 5794 5791 5787 5784 5781 5777 5773 5770 5765 5762 5758 5753 5749 5745 5741